Tracking 18876 objects as of 13-Dec-2017
HD Live streaming from Space Station
objects crossing your sky now

DMSP 5D-2 F13 (USA 109)

Track DMSP 5D-2 F13 (USA 109) now!
10-day predictions
DMSP 5D-2 F13 (USA 109) is classified as:


NORAD ID: 23533
Int'l Code: 1995-015A
Perigee: 839.8 km
Apogee: 853.5 km
Inclination: 98.8 °
Period: 101.7 minutes
Semi major axis: 7217 km
RCS: Unknown
Launch date: March 24, 1995
Source: United States (US)
Launch site: AIR FORCE WESTERN TEST RANGE (AFWTR)

Near-polar orbits; investigate Earth's environment.
aabbcc
Your satellite tracking list
Your tracking list is empty




NASA's NSSDC Master Catalog

Two Line Element Set (TLE):
1 23533U 95015A   17346.22874990 0.00000050  00000-0  25451-4 0    07
2 23533  98.7856 344.5553 0009500  19.1316 340.8682 14.15835149    07
Source of the keplerian elements: McCants